Starlink 32939

operational
NORAD ID: 63149 Int'l Des: 2025-043 Owner: SPXS Country: US Constellation: starlink
LEOCIRCULAR

Über Starlink 32939

Beschreibung wird geladen...

Live-Position

3D-Globus wird geladen...

Nächste Überflüge

Höhenverlauf

Altitude vs Time

uPlot chart will show altitude changes over time

Zweizeiliger Elementsatz

1 63149U 25043T 25258.38212755 .00011360 00000-0 42127-3 0 9992
2 63149 42.9969 286.0754 0000527 162.0361 198.0510 15.27613509 30555
Epoch: 15. Sept. 2025 • Age: 17 hours

Aktueller Status

Höhe 494.8 km
Geschwindigkeit 7.62 km/s
Subsatellitenpunkt -39.83°S, 140.42°E
Startdatum 3. März 2025
Alter 0.5 years
Typ internet

Technische Details

Klassifizierung Payload
Masse 730.00 kg
Trockenmasse 700.00 kg
Gesamtmasse 730.00 kg
Länge 0.30 m
Durchmesser 4.10 m
Spannweite 29.00 m
Form Box + pan
Hersteller SPXS
Bus-Typ Starlink V2M
Phasenstatus In Orbit
Besitzer/Staat SPXS/US

Große Konstellationen

Loading constellations...